Search for airport 
image banner adimage banner ad
image banner ad

LEBENI - Benicolet-Aeroclub Balica

Located in , Spain

ICAO - , IATA -

Data provided by Airmate  

General information

Coordinates: N38°55'7" W0°21'16"
Elevation is 807 feet MSL.
 
Rated:
View ratings: [VIEW]


View others Airports in Valencia

Operational data

Open for public use
Current time UTC:
Current local time:
Weather at : LEVC - Valencia/Manises ( 64 km )
METAR: LEVC 062100Z 04004KT 010V090 CAVOK 24/19 Q1005 NOSIG
TAF: TAF LEVC 061700Z 0618/0718 09007KT 9999 FEW040 TX27/0713Z TN16/0705Z BECMG 0618/0620 VRB04KT PROB30 TEMPO 0623/0701 26010KT PROB30 TEMPO 0703/0706 3000 BR BKN008 BECMG 0709/0711 12010KT PROB30 TEMPO 0712/0718 4000 TSRA FEW030CB BECMG 0715/0717 06015G27KT
View NOTAMs / SUP AIP / TFR affecting this airport [VIEW]
Communications frequencies: [VIEW]

Runways:

RWY identifierQFULength (ft)Width (ft)SurfaceLDA (ft)
098200GRAS
278200GRAS

Airport contact information

Address: Spain

Other aviation service providers

Aviation club (not for profit)

Aeroclub Balica

Aeroclub Balica
info@aeroclub-balica.com+34617526690
+34617526690

Satellite view of LEBENI